Temp
-16 -16 -16 -15 -15 -15 -15 -15 -15 -15 -15 -15 -15 -15 -15 -15 -15 -15 -15 -15 -15 -15 -15 -15 -15 -15 -15 -15 -15 -15 -15 -15 -15 -15 -15 -15 -15 -15 -15 -15 -15 -15
-16 -16 -16 -16 -16 -15 -15 -15 -16 -16 -16 -16 -15 -15 -15 -15 -15 -15 -15 -15 -15 -15 -15 -15 -15 -15 -15 -15 -15 -15 -14 -14 -14 -14 -15 -15 -15 -15 -15 -15 -15 -15
-16 -16 -16 -16 -16 -16 -15 -15 -16 -16 -16 -16 -16 -15 -15 -15 -15 -15 -15 -15 -15 -15 -15 -15 -15 -15 -15 -15 -14 -14 -14 -14 -14 -14 -15 -15 -15 -15 -15 -15 -15 -15
-15 -16 -16 -16 -16 -15 -15 -15 -16 -16 -16 -16 -16 -15 -15 -15 -15 -15 -15 -15 -15 -15 -15 -15 -15 -15 -15 -14 -14 -14 -14 -14 -14 -14 -14 -15 -15 -15 -15 -15 -15 -15
-15 -15 -15 -15 -15 -15 -15 -15 -16 -16 -16 -16 -16 -15 -15 -15 -15 -15 -15 -15 -15 -15 -15 -15 -15 -15 -15 -14 -14 -14 -14 -14 -14 -14 -14 -14 -14 -15 -15 -15 -15 -15
-15 -15 -15 -15 -15 -15 -15 -15 -15 -16 -16 -16 -16 -16 -15 -15 -15 -15 -15 -16 -16 -15 -15 -15 -15 -15 -15 -15 -14 -14 -14 -14 -14 -14 -14 -14 -14 -15 -15 -15 -15 -15
-16 -16 -15 -15 -15 -15 -15 -15 -15 -15 -15 -16 -16 -16 -15 -16 -16 -15 -15 -15 -15 -15 -15 -15 -15 -15 -15 -15 -15 -15 -15 -14 -14 -14 -14 -14 -14 -15 -15 -15 -15 -15
-16 -16 -15 -15 -16 -16 -15 -15 -15 -15 -16 -16 -16 -16 -16 -16 -16 -16 -15 -15 -15 -15 -15 -15 -15 -15 -15 -15 -15 -15 -15 -15 -15 -14 -15 -15 -15 -15 -15 -15 -15 -15
-16 -16 -16 -16 -16 -16 -16 -16 -16 -16 -16 -16 -16 -16 -16 -16 -16 -16 -16 -15 -15 -15 -15 -15 -15 -15 -15 -15 -15 -15 -15 -15 -15 -15 -15 -15 -15 -15 -15 -15 -16 -16
-16 -16 -16 -16 -16 -16 -16 -16 -16 -16 -16 -16 -16 -16 -16 -16 -16 -16 -16 -16 -16 -16 -16 -16 -16 -16 -16 -15 -15 -15 -15 -15 -15 -15 -15 -15 -16 -16 -16 -16 -16 -16
-16 -16 -16 -16 -16 -16 -16 -16 -16 -16 -16 -16 -16 -16 -16 -16 -16 -16 -16 -16 -16 -16 -16 -16 -16 -16 -16 -16 -16 -16 -15 -15 -15 -15 -15 -16 -16 -16 -16 -16 -16 -16
-16 -16 -16 -16 -16 -16 -16 -16 -16 -16 -16 -16 -16 -16 -16 -16 -16 -16 -16 -16 -16 -16 -16 -16 -16 -16 -16 -16 -16 -16 -16 -16 -16 -16 -16 -16 -16 -16 -17 -17 -17 -17
-16 -16 -16 -16 -16 -16 -16 -16 -16 -16 -16 -16 -16 -16 -16 -16 -16 -16 -16 -16 -16 -16 -16 -16 -16 -16 -16 -16 -16 -16 -16 -16 -16 -16 -16 -16 -16 -16 -17 -17 -17 -17
-16 -15 -16 -16 -16 -16 -16 -16 -16 -16 -17 -17 -17 -17 -16 -16 -16 -16 -16 -16 -16 -16 -16 -16 -16 -16 -16 -16 -16 -16 -16 -16 -16 -16 -16 -16 -16 -17 -17 -17 -17 -17
-16 -15 -15 -16 -16 -16 -16 -16 -16 -16 -17 -17 -17 -17 -17 -17 -16 -16 -16 -16 -16 -17 -17 -16 -16 -16 -16 -16 -16 -16 -16 -16 -16 -16 -17 -17 -17 -17 -17 -17 -17 -17
-15 -15 -16 -16 -16 -16 -16 -16 -16 -16 -17 -17 -17 -17 -17 -17 -17 -17 -17 -17 -17 -17 -17 -17 -17 -17 -17 -17 -17 -17 -17 -17 -17 -17 -17 -17 -17 -17 -17 -17 -17 -17
-15 -15 -16 -16 -16 -16 -16 -16 -16 -16 -16 -17 -17 -17 -17 -17 -17 -17 -17 -17 -17 -17 -17 -17 -17 -17 -17 -17 -17 -17 -17 -17 -17 -17 -17 -17 -17 -17 -17 -17 -17 -17
-15 -15 -16 -16 -16 -16 -16 -16 -16 -16 -16 -17 -17 -17 -17 -17 -17 -17 -17 -17 -17 -17 -17 -17 -17 -17 -17 -17 -18 -18 -18 -18 -18 -18 -18 -18 -18 -18 -18 -18 -18 -18
-16 -16 -16 -16 -16 -16 -16 -16 -16 -16 -16 -16 -17 -17 -17 -17 -17 -17 -18 -18 -17 -17 -17 -17 -17 -17 -18 -18 -18 -18 -18 -18 -18 -18 -18 -18 -18 -18 -18 -18 -18 -18
-16 -16 -16 -16 -16 -16 -16 -16 -16 -16 -16 -16 -16 -17 -17 -17 -17 -17 -17 -17 -18 -18 -18 -18 -18 -18 -18 -18 -18 -18 -18 -18 -18 -18 -18 -18 -18 -18 -18 -18 -18 -18
-16 -16 -16 -16 -16 -16 -16 -16 -17 -17 -16 -16 -16 -16 -17 -17 -17 -17 -17 -17 -17 -18 -18 -18 -18 -18 -18 -18 -18 -18 -18 -18 -18 -18 -18 -18 -18 -18 -18 -18 -18 -18
-17 -17 -17 -17 -17 -17 -17 -17 -17 -17 -17 -17 -17 -17 -17 -17 -17 -17 -17 -17 -17 -18 -18 -18 -18 -18 -18 -18 -18 -18 -18 -18 -18 -18 -18 -18 -18 -18 -18 -18 -18 -18
-17 -17 -17 -17 -17 -17 -17 -17 -17 -17 -17 -17 -17 -17 -17 -17 -17 -18 -18 -18 -18 -18 -18 -18 -18 -18 -18 -18 -18 -18 -18 -18 -18 -18 -18 -18 -19 -19 -19 -18 -18 -18
-17 -17 -17 -17 -17 -17 -17 -17 -18 -18 -18 -18 -18 -18 -18 -18 -18 -18 -18 -18 -18 -18 -18 -18 -18 -18 -18 -18 -18 -18 -18 -18 -18 -18 -18 -18 -18 -18 -18 -18 -19 -19
-17 -17 -17 -17 -17 -17 -17 -18 -18 -18 -18 -18 -18 -18 -18 -18 -18 -18 -18 -18 -18 -18 -18 -18 -18 -18 -18 -18 -19 -19 -19 -19 -19 -19 -19 -19 -19 -19 -19 -19 -19 -19
-18 -18 -17 -17 -17 -17 -17 -17 -17 -17 -18 -18 -18 -18 -18 -18 -18 -18 -18 -18 -18 -18 -19 -19 -19 -19 -19 -19 -19 -19 -19 -19 -19 -19 -19 -19 -19 -19 -19 -19 -19 -19
Height
5765 5766 5768 5769 5770 5771 5772 5773 5774 5775 5776 5778 5779 5780 5781 5782 5782 5783 5783 5784 5785 5786 5786 5786 5786 5787 5787 5787 5787 5788 5788 5788 5788 5789 5789 5790 5790 5791 5792 5792 5792 5793
5763 5764 5766 5768 5769 5770 5772 5773 5774 5775 5776 5777 5778 5779 5780 5780 5781 5781 5782 5783 5784 5784 5785 5785 5785 5785 5786 5786 5786 5786 5786 5786 5787 5787 5788 5788 5789 5789 5790 5790 5790 5791
5761 5763 5765 5766 5768 5769 5771 5772 5773 5774 5775 5776 5777 5777 5778 5779 5779 5779 5780 5781 5782 5783 5783 5784 5784 5784 5784 5785 5785 5785 5785 5785 5785 5786 5786 5787 5787 5787 5787 5788 5788 5788
5761 5762 5763 5765 5766 5767 5768 5769 5770 5771 5772 5774 5775 5776 5776 5777 5777 5778 5779 5779 5780 5781 5782 5782 5783 5783 5783 5783 5783 5783 5784 5784 5784 5785 5785 5785 5785 5785 5786 5786 5786 5786
5759 5760 5761 5762 5764 5765 5766 5767 5768 5769 5770 5771 5772 5773 5774 5775 5776 5776 5777 5778 5779 5779 5780 5781 5781 5782 5782 5782 5782 5782 5783 5783 5783 5784 5784 5784 5784 5784 5784 5784 5784 5784
5757 5758 5759 5760 5761 5763 5764 5764 5765 5766 5768 5769 5770 5772 5773 5774 5774 5775 5775 5776 5777 5778 5779 5779 5780 5780 5780 5781 5781 5781 5782 5782 5783 5783 5783 5783 5783 5783 5782 5782 5783 5782
5755 5756 5757 5758 5760 5762 5762 5763 5764 5765 5766 5768 5770 5771 5772 5773 5774 5774 5774 5775 5775 5776 5777 5777 5778 5778 5779 5779 5780 5780 5781 5781 5782 5782 5782 5782 5782 5782 5781 5781 5781 5781
5755 5755 5756 5757 5759 5761 5762 5762 5763 5765 5766 5768 5769 5771 5772 5772 5773 5773 5774 5774 5774 5774 5775 5775 5776 5776 5777 5777 5778 5779 5779 5780 5780 5780 5780 5780 5780 5780 5780 5780 5780 5779
5752 5753 5755 5756 5758 5760 5761 5762 5763 5764 5765 5767 5768 5769 5770 5771 5772 5772 5772 5772 5772 5773 5773 5773 5774 5774 5775 5775 5776 5777 5777 5778 5778 5778 5778 5778 5778 5778 5778 5778 5778 5778
5750 5751 5753 5754 5756 5758 5759 5760 5761 5762 5763 5764 5765 5767 5768 5768 5769 5769 5770 5770 5770 5771 5771 5771 5772 5772 5773 5773 5774 5774 5775 5775 5775 5776 5776 5776 5776 5776 5776 5776 5776 5776
5748 5749 5750 5751 5753 5755 5756 5757 5758 5759 5760 5761 5762 5763 5764 5765 5766 5766 5767 5767 5767 5768 5768 5769 5770 5770 5771 5771 5771 5772 5772 5772 5773 5773 5773 5773 5774 5774 5774 5774 5774 5774
5745 5746 5748 5749 5750 5752 5753 5754 5755 5757 5758 5758 5759 5760 5760 5761 5762 5763 5763 5764 5765 5765 5766 5767 5767 5768 5768 5769 5769 5769 5770 5770 5770 5770 5770 5771 5771 5772 5772 5772 5773 5773
5743 5743 5744 5746 5747 5749 5750 5751 5752 5754 5755 5756 5756 5757 5757 5758 5759 5759 5760 5761 5762 5763 5763 5764 5765 5765 5766 5766 5766 5767 5767 5767 5767 5768 5768 5768 5769 5769 5770 5770 5771 5771
5740 5740 5741 5743 5745 5746 5748 5749 5750 5751 5752 5752 5753 5753 5754 5755 5756 5756 5757 5758 5759 5760 5760 5761 5762 5762 5763 5763 5764 5764 5764 5765 5765 5766 5766 5766 5766 5767 5767 5768 5768 5768
5737 5737 5739 5740 5741 5743 5745 5746 5747 5747 5748 5749 5749 5750 5751 5752 5753 5754 5754 5755 5756 5756 5757 5757 5758 5759 5760 5760 5761 5762 5762 5762 5763 5763 5764 5764 5764 5765 5765 5765 5765 5766
5734 5735 5736 5737 5738 5739 5741 5742 5743 5743 5744 5745 5746 5747 5748 5749 5750 5751 5752 5752 5753 5753 5754 5754 5755 5756 5757 5758 5758 5759 5759 5760 5760 5761 5761 5762 5762 5762 5762 5763 5763 5763
5731 5732 5733 5733 5734 5736 5737 5738 5739 5740 5740 5741 5743 5744 5745 5746 5747 5748 5749 5750 5750 5751 5751 5751 5752 5753 5754 5754 5755 5756 5756 5757 5757 5758 5758 5759 5759 5759 5760 5760 5760 5760
5729 5729 5730 5731 5732 5733 5734 5735 5736 5736 5737 5737 5739 5741 5742 5743 5744 5745 5746 5747 5747 5748 5748 5748 5749 5749 5750 5751 5752 5752 5753 5753 5754 5754 5755 5756 5756 5756 5756 5757 5757 5757
5726 5727 5728 5729 5730 5731 5732 5733 5733 5734 5734 5735 5736 5737 5739 5740 5741 5742 5742 5743 5744 5744 5744 5745 5745 5746 5747 5748 5749 5749 5750 5751 5751 5752 5752 5752 5753 5753 5753 5753 5753 5753
5724 5725 5725 5726 5727 5728 5729 5730 5731 5731 5732 5733 5733 5735 5736 5737 5738 5738 5739 5739 5740 5740 5740 5741 5742 5743 5744 5745 5746 5746 5747 5747 5748 5748 5749 5749 5749 5749 5749 5748 5748 5748
5721 5721 5722 5723 5724 5725 5726 5727 5728 5729 5730 5731 5732 5732 5733 5734 5735 5736 5736 5736 5736 5736 5737 5738 5739 5740 5740 5741 5741 5742 5742 5743 5743 5744 5744 5744 5744 5744 5744 5744 5744 5744
5718 5718 5719 5721 5721 5722 5723 5723 5724 5726 5728 5729 5730 5730 5731 5732 5732 5733 5733 5733 5732 5733 5734 5735 5735 5736 5737 5737 5737 5738 5738 5738 5739 5739 5740 5740 5740 5740 5739 5739 5739 5739
5716 5715 5717 5719 5718 5718 5720 5720 5721 5723 5725 5726 5727 5727 5728 5728 5728 5729 5729 5729 5729 5729 5730 5731 5731 5732 5732 5733 5733 5734 5734 5734 5735 5735 5735 5735 5735 5735 5735 5735 5735 5735
5712 5712 5714 5716 5715 5715 5717 5717 5718 5720 5721 5722 5723 5723 5723 5723 5723 5724 5724 5724 5724 5724 5724 5726 5726 5727 5727 5728 5728 5729 5729 5729 5730 5730 5730 5730 5729 5729 5729 5730 5730 5729
5708 5709 5710 5711 5711 5712 5713 5714 5714 5715 5715 5716 5716 5717 5717 5718 5719 5719 5719 5719 5718 5718 5719 5720 5721 5722 5723 5723 5723 5723 5723 5723 5724 5724 5724 5724 5723 5723 5723 5724 5724 5723
5704 5705 5705 5707 5707 5708 5710 5711 5711 5712 5711 5711 5711 5711 5711 5712 5712 5713 5714 5714 5713 5713 5713 5713 5715 5716 5716 5717 5717 5716 5716 5716 5716 5717 5717 5717 5717 5717 5717 5717 5716 5716
Wind_Speed
27 29 30 29 27 25 24 24 22 20 17 14 14 15 16 17 17 16 15 14 13 13 13 13 14 14 14 14 14 14 14 14 15 15 14 12 10 9 8 7 8 8
26 29 31 30 29 27 26 24 22 20 18 16 15 16 17 17 16 15 14 13 12 13 13 13 13 13 13 13 14 14 14 15 16 15 14 12 10 9 9 9 9 10
25 27 29 29 29 28 27 26 24 23 23 20 18 18 18 16 16 15 14 13 13 13 13 13 13 13 13 13 13 13 13 14 15 15 14 12 11 11 12 11 11 11
21 24 26 26 27 26 25 25 25 25 24 21 20 19 18 17 17 17 15 14 14 14 14 13 13 13 12 12 12 11 11 12 12 12 13 13 13 13 13 13 12 12
19 20 22 23 23 22 22 23 24 25 23 21 21 20 19 19 18 18 17 16 16 16 15 14 13 13 13 12 11 11 11 11 10 11 12 13 13 13 13 13 13 14
19 19 20 20 19 19 19 20 21 22 22 21 21 21 20 20 19 19 18 17 17 17 16 16 15 14 14 13 11 11 12 12 11 11 12 13 13 14 14 14 14 14
20 19 19 18 16 15 16 17 18 19 20 21 21 21 21 21 21 21 20 18 18 18 18 17 16 15 15 14 12 13 13 13 13 13 13 13 14 14 14 14 14 13
20 19 18 16 15 14 14 15 16 17 17 18 19 20 21 22 23 22 21 20 20 20 20 19 18 16 16 15 14 14 14 14 14 13 13 14 14 14 13 13 13 12
21 21 19 17 16 15 14 14 15 15 15 16 18 19 20 21 22 21 21 21 21 22 21 21 19 18 17 16 15 15 15 15 15 14 14 14 13 13 12 12 12 12
23 23 21 18 17 17 16 15 16 16 16 17 18 18 18 19 20 20 20 21 21 22 22 22 21 19 18 17 16 16 16 17 17 16 15 13 12 12 11 11 12 12
23 23 22 21 20 19 18 17 17 17 18 20 20 20 19 20 20 20 21 20 21 21 22 22 21 21 19 18 18 18 18 19 18 17 16 14 13 12 11 11 12 13
25 24 23 23 22 21 20 18 17 17 19 21 22 22 22 21 21 22 21 20 20 21 22 23 22 22 21 21 20 20 20 21 20 18 17 16 14 13 12 12 12 13
29 27 25 23 23 22 20 19 18 18 19 21 21 22 23 23 22 22 21 20 21 21 22 23 24 24 24 23 23 22 22 22 21 20 18 17 16 14 14 14 14 13
27 28 27 24 22 22 20 19 20 20 19 20 21 21 22 23 23 23 23 22 22 22 23 24 24 24 25 25 24 24 24 23 23 21 19 18 18 17 16 16 16 16
20 20 21 21 20 21 20 20 21 20 19 20 20 19 19 20 21 23 24 24 23 23 24 24 25 25 25 25 24 24 24 23 22 21 20 19 19 18 17 18 18 18
19 18 18 18 20 21 20 20 21 21 21 21 21 20 19 20 22 23 25 25 24 24 25 25 25 25 25 25 25 24 23 23 22 21 21 20 20 20 20 20 21 21
21 20 20 20 20 20 20 20 21 22 23 23 23 22 22 23 24 24 25 26 26 26 27 27 26 26 26 25 25 25 24 23 23 22 22 22 22 22 23 24 24 24
22 22 20 19 19 20 20 20 21 22 24 24 23 23 23 23 23 24 25 26 27 28 28 28 28 28 27 27 27 26 25 25 24 24 24 24 24 25 26 26 27 27
21 21 19 18 19 20 21 21 21 22 24 24 23 22 22 22 23 23 25 27 28 29 30 30 30 30 29 28 27 27 26 26 26 26 26 26 27 27 28 29 29 30
20 20 19 19 20 21 22 23 23 23 23 23 22 22 22 22 23 24 26 27 28 29 30 31 31 30 29 29 28 27 27 26 26 27 27 28 29 30 31 31 32 32
22 23 24 23 22 22 23 25 26 25 24 23 23 23 23 23 25 26 27 29 29 30 30 31 31 30 30 29 29 28 28 28 28 29 30 30 31 32 33 33 34 34
17 18 19 18 19 20 21 22 24 24 23 23 23 24 25 26 28 29 30 31 31 31 31 32 32 31 31 31 30 30 30 31 31 32 32 33 33 34 35 35 36 37
17 18 17 14 16 17 17 19 21 21 22 23 25 27 28 28 28 28 30 31 32 32 33 34 34 34 33 32 31 31 33 34 34 34 34 35 35 36 36 37 38 39
24 25 23 21 22 21 21 22 24 25 26 27 27 29 29 28 27 27 28 30 31 33 35 36 36 36 35 34 33 34 35 37 38 38 38 39 39 40 40 40 41 42
26 26 26 25 26 25 25 25 26 28 30 30 29 29 29 29 29 29 30 31 32 34 36 37 37 37 38 39 40 40 41 41 41 42 42 42 43 44 45 45 46 46
29 29 29 28 28 27 25 25 26 27 28 29 29 31 32 33 34 34 33 33 34 35 37 38 39 40 42 45 47 47 47 46 46 46 46 46 46 47 48 49 49 49
Wind_Direction
217 220 223 226 230 231 230 227 227 229 232 236 239 234 227 222 220 219 218 216 220 225 229 233 236 239 243 246 249 253 257 260 261 261 261 260 256 250 245 245 247 254
220 223 228 233 236 238 239 240 241 242 245 248 246 236 225 220 220 221 221 217 219 225 229 233 235 237 241 247 252 255 257 259 260 258 255 250 246 244 245 246 246 251
226 227 232 237 240 243 246 250 249 247 249 249 243 232 223 219 220 223 224 222 221 223 226 230 235 240 243 246 250 252 255 258 256 251 246 240 238 241 244 246 248 252
236 236 239 243 245 247 249 250 249 246 245 241 232 226 220 217 220 223 225 226 227 227 228 230 235 239 242 243 245 250 254 254 248 241 237 234 236 239 241 244 247 249
241 240 242 244 246 247 247 247 244 239 235 228 222 221 218 217 221 224 226 228 230 232 232 232 233 235 239 241 242 248 250 247 244 241 239 237 236 237 239 240 241 243
235 234 235 238 240 241 242 240 235 229 223 217 216 220 220 221 224 227 228 229 232 235 234 232 231 232 237 240 241 246 246 244 247 251 248 243 241 240 240 240 240 241
230 230 231 234 235 237 236 231 224 218 214 212 216 222 224 225 228 229 229 231 233 235 235 232 232 234 237 240 243 245 246 247 252 255 251 247 246 247 247 247 247 247
230 231 234 238 238 234 230 223 216 212 211 216 223 229 231 232 232 232 230 231 232 235 235 234 234 237 240 243 246 247 248 250 254 254 251 249 250 252 256 257 259 259
230 231 233 237 240 238 232 225 221 222 227 232 236 239 240 239 238 238 235 233 232 233 235 236 237 240 243 246 249 251 250 250 252 252 250 248 252 257 263 268 270 270
234 233 232 234 237 236 234 231 231 235 240 244 246 248 249 249 248 249 246 242 239 236 236 237 239 241 244 247 251 252 251 249 250 250 247 248 251 256 262 268 272 271
237 237 237 236 234 233 233 233 236 240 244 247 249 249 250 253 256 257 256 254 249 244 240 239 240 241 244 247 251 252 251 250 250 250 248 246 246 249 255 260 264 265
240 243 243 238 234 232 230 231 237 246 252 254 253 250 249 250 253 257 260 261 258 252 246 243 243 243 245 248 251 251 250 249 249 249 247 245 244 244 248 251 254 256
245 251 250 240 233 231 229 235 247 257 260 260 259 255 251 248 250 253 257 261 261 257 251 248 248 248 249 251 251 250 250 249 249 248 246 246 247 247 246 248 249 251
253 256 252 243 237 234 235 246 261 266 262 259 260 258 253 250 251 254 255 257 258 255 253 252 252 252 252 252 251 250 250 251 251 250 249 250 251 251 250 250 252 254
256 252 243 240 240 239 243 252 264 270 266 261 259 255 250 249 252 257 258 256 254 253 254 254 255 255 254 253 252 251 252 254 254 254 254 255 256 256 255 256 258 259
245 242 238 242 245 244 248 256 264 270 267 260 255 249 246 247 254 260 261 259 255 253 254 255 255 254 253 252 252 251 251 253 254 254 255 256 258 259 260 261 261 262
246 247 246 250 249 245 249 258 264 269 267 259 252 250 251 255 259 261 261 260 257 256 255 255 254 252 251 250 250 250 250 250 252 254 255 257 259 260 262 264 264 265
250 251 252 251 246 243 248 256 259 263 263 258 252 251 254 256 257 257 257 258 258 257 256 255 253 251 248 247 247 249 250 251 253 255 256 258 260 261 263 265 266 268
249 253 254 251 247 247 252 255 256 258 258 254 251 249 249 250 252 254 255 256 257 257 255 253 252 250 248 247 248 250 253 255 257 259 260 261 262 263 264 266 267 268
254 257 256 255 254 255 256 256 257 256 252 249 247 243 241 245 252 254 253 253 252 253 254 253 250 248 248 249 251 254 256 258 259 261 262 263 264 265 266 267 268 268
260 260 257 257 259 261 262 260 257 253 250 249 249 247 247 252 256 257 254 252 249 248 249 249 248 247 248 250 252 254 256 257 258 259 261 263 264 265 266 267 267 268
258 255 253 257 262 261 260 258 253 249 250 252 254 256 259 262 262 261 258 255 251 249 249 248 248 248 249 250 251 252 254 255 257 259 261 263 265 266 266 267 267 267
238 239 246 254 255 249 246 249 251 252 255 259 261 262 262 262 262 263 262 259 257 255 254 251 249 248 248 249 250 253 255 257 258 261 262 264 265 267 267 267 267 267
236 238 242 243 243 245 249 255 261 263 264 265 264 262 259 258 258 259 259 259 257 257 256 253 250 248 246 247 251 257 261 261 261 262 263 263 265 266 266 266 267 268
241 241 241 240 243 249 255 261 267 270 271 270 267 262 259 259 260 260 259 259 259 258 258 255 252 250 249 251 258 264 267 266 264 263 263 264 264 265 265 265 266 268
242 242 241 240 243 245 249 257 263 264 265 267 267 265 263 263 263 261 259 259 259 259 258 258 257 256 256 258 262 265 267 267 266 265 264 264 264 266 266 266 266 267